Погода в Астрахани

Погода в Астрахани : погода сейчас, прогноз погоды и архив. Всё, что Вы хотите узнать о погоде в Астрахани!

Хотите узнать прогноз погоды в Астрахани? Тогда Вам сюда: Погода в Астрахани

Поиск расширенной информации на нашем сайте:

Другие новости

Новости СМИ2

Главная страница сайта

Новости сайта

03.07.2017

Напоминаем, что на нашем специализированном сайте Метеоцентр.Азия вы можете получить высокодетализированные автоматические прогнозы погоды по пунктам России, СНГ и мира в авиационном формате (включающие направление и скорость ветра, видимость, явления погоды, количество и форму облачности, нижнюю и верхнюю границу облачности).

Рекомендуем: http://angiosurgery.org/ флебология лечение вен.

Погода в Астрахани - сегодня

Время (UTC), дата Ветер
(°,м/с) 
Видим.   Явления Облачность Т
(°С)
Тd
(°С)
f(%) Тe
(°С)
Pmin
(гПа)
dP
(гПа)
Po
(мм)
O2
(г/м3)
Тmin Tmax R s Состояние
почвы
09 19.07.17 140 (ЮВ) 5{12}  10 км    9/8 600 м кучево-дожд., верхняя 
[Cb cap|Ci fib]
+32.9 +10.2 25 +34  1010.5  -0.1  760  271           
12 19.07.17 130 (ЮВ) 1{10}  10 км    9/9 600 м кучево-дожд. 
[Cb cap]
+28.6 +16.2 47 +39  1010.3  -0.2  760  274           
15 19.07.17 110 (В) 10 км  {ливн. осадки}  9/9 600 м кучево-дожд. 
[Cb cap]
+27.9 +16.7 51 +39  1010.6  0.3  760  274    +34.1  0.0     
18 19.07.17 040 (СВ) 1{11}  10 км  {ливн. осадки}  8/8 600 м кучево-дожд. 
[Cb calv]
+26 +13.7 47 +32  1009.1  -1.5  759  276           
21 19.07.17 050 (СВ) 10 км    8/0 средняя 
[Ac trans]
+23.8 +17.9 70 +38  1009.5  0.4  759  277           
00 20.07.17 тихо ()   10 км    9/0 средняя 
[Ac trans]
+21.6 +18.4 82 +36  1008.1  -1.4  758  279           
03 20.07.17 100 (В) 10 км    9/3 600 м кучево-дожд., средняя, верхняя 
[Cb cap|Ac trans|Ci fib]
+24.9 +20.3 76 +44  1007.7  -0.4  758  275  +21        сухая 
06 20.07.17 130 (ЮВ) 10 км    9/1 600 м кучево-дожд., средняя, верхняя 
[Cb cap|Ac trans|Ci fib]
+31.6 +12.8 32 +36  1008.2  0.4  758  271           
09 20.07.17 130 (ЮВ) 10 км    8/4 600 м кучево-дожд., средняя 
[Cb cap|Ac trans]
+34.1 +11.4 25 +37  1007.8  -0.4  758  269           
12 20.07.17 130 (ЮВ) 10 км    8/3 600 м кучево-дожд., средняя 
[Cb cap|Ac trans]
+34.3 +8.8 21 +34  1006.9  -0.9  757  270           
15 20.07.17 120 (ЮВ) 10 км    8/3 600 м кучево-дожд., средняя, верхняя 
[Cb cap|Ac trans|Ci ing]
+31.8 +16.9 41 +44  1006.4  -0.5  757  269    +36.6       
18 20.07.17 080 (В) 10 км    9/3 600 м кучево-дожд., средняя, верхняя 
[Cb cap|Ac trans|Ci fib]
+25.2 +19.2 69 +42  1007.1  0.9  757  275           
21 20.07.17 тихо ()   4000 м  дымка  3/0 средняя 
[Ac trans]
+21.5 +19.9 91 +40  1007.1  -0.1  757  278           
00 21.07.17 120 (ЮВ) 4000 м  дымка  6/3 600 м кучево-дожд., средняя 
[Cb cap|Ac trans]
+22.9 +21.5 92 +45  1006.4  -0.7  757  276           
03 21.07.17 160 (Ю) 4000 м  дымка  9/3 600 м кучево-дожд., средняя, верхняя 
[Cb cap|Ac trans|Ci fib]
+24.4 +22.4 89 +49  1007.4  757  274  +21.2         
06 21.07.17 200 (Ю) 10 км    9/6 600 м средняя 
[Sc diur, vesp|Ac trans]
+29.3 +19.8 57 +47  1008.2  0.8  758  271           
09 21.07.17 180 (Ю) 10 км    6/3 1000 м средняя, верхняя 
[Cu hum|Ac trans|Ci fib]
+34.3 +16.7 35 +46  1008.5  0.3  758  268           
12 21.07.17 210 (ЮЗ) 10 км    3/3 1000 м средняя 
[Cu hum|Ac trans]
+37.2 +12.9 23 +42  1007.8  -0.8  758  266           
15 21.07.17 330 (СЗ) 10 км    3/3 1000 м 
[Cu hum]
+32.8 +15.3 35 +42  1008.6  0.8  758  270    +37.5       
18 21.07.17 290 (З) 10 км    3/0 средняя 
[Ac trans]
+27.8 +15.4 47 +37  1010.3  1.8  760  275           
21 21.07.17 320 (СЗ) 10 км    8/4 600 м кучево-дожд., средняя 
[Cb cap|Ac trans]
+26.2 +16.5 55 +37  1011  0.7  760  276           
00 22.07.17 270 (З) 10 км    3/0 средняя 
[Ac trans]
+23.6 +17.2 67 +36  1010.9  -0.1  760  278           
03 22.07.17 310 (СЗ) 10 км    ясно 
+24 +18.6 72 +39  1011.8  0.9  761  277  +22.4        сухая 
06 22.07.17 330 (СЗ) 10 км    ясно 
+29.5 +17.1 47 +42  1012.4  0.6  761  273           
09 22.07.17 310 (СЗ) 10 км    ясно 
+32.9 +14.2 32 +40  1012.2  -0.3  761  271           
Время (UTC), дата Ветер
(°,м/с) 
Видим.   Явления Облачность Т
(°С)
Тd
(°С)
f(%) Тe
(°С)
Pmin
(гПа)
dP
(гПа)
Po
(мм)
O2
(г/м3)
Тmin Tmax R s Состояние
почвы

Для получения пояснительной информации подведите курсор к названию столбца.

ПОГОДА в Астрахани - архив

Всё, что Вы хотите узнать о погоде в Астрахани - удобно и подробно!

Выберите нужную дату (начиная с 1 января 2015* года) и нажмите кнопку "Найти".
Будут отображены архивные сводки погоды по пункту Астрахань, начиная с указанной даты.


Отображать данные в формате CSV (для использования в таблицах Excel)


Внимание! Наш архив погоды предназначен исключительно для личного некоммерческого использования в познавательных целях. Если Вам необходимы официальные справки о состоянии погоды (для производственных, юридических, коммерческих и т.п. целей), обращайтесь в органы Росгидромета.

*Примечание: данная дата относится к архиву по метеостанциям СССР (Россия, СНГ, Балтия).
Архив по метеостанциям Зарубежной Европы и Азии (кроме Китая) хранится 10 дней, по другим регионам земного шара (Китай, Африка, Америка, Австралия, Океания) - 1 день.

Астрахань - район местоположения метеостанции


Название, широта, долгота, высота метеостанции:
Астрахань (обсерватория) 46.3°ш. 47.9°д. -23 м над ур. моря [Российская Федерация]

Дополнительная информация

В oтличие oт бoльшинства пoгoдных сайтoв мы публикуем пoдрoбную метеoинфoрмацию в детальнoм прoфессиoнальнoм фoрмате.

Характеристики температуры и влажнoсти вoздуха измеряются на высoте 2 м в тени вдали oт зданий и деревьев.
Скoрoсть ветра измеряется на высoте 10 м (на урoвне рoста челoвека скoрoсть ветра ниже в 1.5-2 раза). Если метеoстанция нахoдится в гoрoде или в лесу, тo скoрoсть ветра занижена на 2-4 м/с пo сравнению с oткрытым местoм. Скoрoсть ветра над акватoриями крупных рек и oзёр, а также на вершинах хoлмoв на 2-5 м/с выше, чем в oбычных услoвиях.
Атмoсфернoе давление в разных тoчках местнoсти мoжет значительнo oтличаться oт давления на метеoстанции, в зависимoсти oт услoвий рельефа (при пoдъёме на 10 м давление пoнижается примернo на 1 мм рт.ст.).